Regional Weather Roundup
Issued by NWS

Home | Current Version | Previous Version | Graphics & Text | Print | Product List | Glossary On
Versions: 1 2 3 4 5 6 7 8 9 10 11 12 13 14 15 16 17 18 19 20 21 22 23 24 25 26 27 28 29 30 31 32 33 34 35 36 37 38 39 40 41 42 43 44 45 46 47 48 49 50
000
ASUS43 KOAX 280702
RWRNE

WEATHER ROUNDUP FOR NEBRASKA
NATIONAL WEATHER SERVICE OMAHA NE
200 AM CDT MON JUL 28 2014

NOTES: SATELLITE DATA IS BEING USED TO AUGMENT CLOUD COVER ABOVE
       12000 FEET.
       "FAIR" INDICATES FEW OR NO CLOUDS BELOW 12,000 FEET WITH NO
       SIGNIFICANT WEATHER AND/OR OBSTRUCTIONS TO VISIBILITY.

  * THESE STATIONS DO NOT REPORT WEATHER SUCH AS RAIN...SNOW OR FOG.

NEZ001>004-019>022-054>056-280800-
NEBRASKA PANHANDLE

CITY           SKY/WX    TMP DP  RH WIND       PRES   REMARKS
SCOTTSBLUFF    PTCLDY    64  51  62 E9        30.33R
ALLIANCE       CLEAR     57  48  72 SE7       30.33S
CHADRON        CLEAR     61  50  67 VRB3      30.32S
KIMBALL        PTCLDY    65  49  54 SE7       30.36S
SIDNEY         PTCLDY    66  48  52 SE7       30.36R
$$

NEZ057>060-069>072-079>082-280800-
SOUTHWEST NEBRASKA

CITY           SKY/WX    TMP DP  RH WIND       PRES   REMARKS
NORTH PLATTE   CLEAR     59  50  72 CALM      30.31R
IMPERIAL       CLEAR     64  51  62 E5        30.31S
LEXINGTON      CLEAR     60  55  84 NE3       30.29R
MCCOOK         PTCLDY    62  53  72 NE3       30.28R
OGALLALA       CLEAR     56  51  82 NE5       30.32S
$$

NEZ005>010-023>029-035>040-094-280800-
NORTH CENTRAL NEBRASKA

CITY           SKY/WX    TMP DP  RH WIND       PRES   REMARKS
VALENTINE      CLEAR     57  50  77 NE3       30.31S
AINSWORTH      CLEAR     56  52  88 E6        30.31S
BROKEN BOW     CLEAR     59  53  80 CALM      30.30R
O`NEILL        CLEAR     56  53  88 N3        30.29S
ORD            CLEAR     56  55  97 W3        30.27S
THEDFORD       CLEAR     59  52  79 CALM      30.32F
$$

NEZ041-046>049-061>064-073>077-083>087-280800-
SOUTH CENTRAL NEBRASKA

CITY           SKY/WX    TMP DP  RH WIND       PRES   REMARKS
GRAND ISLAND   CLEAR     60  57  89 NE6       30.27R
AURORA         CLEAR     62  60  94 NE7       30.26R
HASTINGS       CLEAR     62  56  80 NE5       30.26R
HEBRON         CLEAR     61  56  83 CALM      30.23R
HOLDREGE       CLEAR     61  57  87 NE5       30.27S
KEARNEY *      CLEAR     61  55  82 N8        30.27S
YORK             N/A     59  59 100 NE6       30.26R
$$

NEZ011>018-030>034-042>045-280800-
NORTHEAST NEBRASKA

CITY           SKY/WX    TMP DP  RH WIND       PRES   REMARKS
NORFOLK        CLEAR     59  54  83 NW6       30.25S
ALBION         CLEAR     57  54  89 NW5       30.27S
BLAIR          CLEAR     60  54  80 NW7       30.20F
COLUMBUS *     CLEAR     57  54  88 N6        30.24F
FREMONT        CLEAR     61  56  84 NW5       30.22S
WAYNE          CLEAR     59  56  88 N9        30.24S
$$

NEZ050>053-065>068-078-088>093-280800-
SOUTHEAST NEBRASKA

CITY           SKY/WX    TMP DP  RH WIND       PRES   REMARKS
LINCOLN        CLEAR     64  57  78 N9        30.23S
OMAHA EPPLEY   CLEAR     61  55  81 NW5       30.20S
BEATRICE       CLEAR     63  58  83 N9        30.21R
NEBRASKA CITY  CLEAR     61  57  87 N6        30.19S
PLATTSMOUTH    CLEAR     62  55  77 CALM      30.20R
$$

NEZ044-045-051>053-067-280800-
OMAHA AREA

CITY           SKY/WX    TMP DP  RH WIND       PRES   REMARKS
OMAHA EPPLEY   CLEAR     61  55  81 NW5       30.20S
BLAIR          CLEAR     60  54  80 NW7       30.20F
FREMONT        CLEAR     61  56  84 NW5       30.22S
MILLARD        CLEAR     65  56  74 N7        30.20S
OFFUTT AFB     CLEAR     65  58  79 N9        30.19S
PLATTSMOUTH    CLEAR     62  55  77 CALM      30.20R
WAHOO          FAIR      60  56  87 N5        30.22S
$$



USA.gov is the U.S. government's official web portal to all federal, state and local government web resources and services.